| time (UTC) | temp C | wind direction | speed KPH | gust KPH | rain 1hr cm | rain 24hr cm | rain mn cm | humidity % | barometer mb |
| 20260507053050 | 26 | 0 | 0.0 | 3.2 | 0.00 | 0.00 | 0.00 | 100 | 1016.1 |
| 20260507051550 | 26 | 0 | 0.0 | 6.4 | 0.00 | 0.00 | 0.00 | 100 | 1016.1 |
| 20260507050051 | 26 | 146 | 0.0 | 6.4 | 0.00 | 0.00 | 0.00 | 100 | 1016.3 |
| 20260507044547 | 26 | 0 | 0.0 | 6.4 | 0.00 | 0.00 | 0.00 | 100 | 1016.5 |
| 20260507043051 | 26 | 0 | 0.0 | 1.6 | 0.00 | 0.00 | 0.00 | 100 | 1016.7 |
| 20260507041551 | 26 | 128 | 0.0 | 4.8 | 0.00 | 0.00 | 0.00 | 100 | 1016.9 |
| 20260507040057 | 26 | 0 | 0.0 | 4.8 | 0.00 | 0.00 | 0.00 | 100 | 1017.2 |
| 20260507034556 | 26 | 124 | 1.6 | 6.4 | 0.00 | 0.00 | 0.00 | 100 | 1017.4 |
| 20260507033055 | 26 | 0 | 1.6 | 6.4 | 0.00 | 0.00 | 0.00 | 100 | 1017.6 |
| 20260507031550 | 26 | 0 | 0.0 | 3.2 | 0.00 | 0.00 | 0.00 | 100 | 1017.6 |
| 20260507030055 | 26 | 141 | 1.6 | 6.4 | 0.00 | 0.00 | 0.00 | 100 | 1017.7 |
| 20260507024604 | 27 | 142 | 3.2 | 8.0 | 0.00 | 0.00 | 0.00 | 100 | 1017.8 |
| 20260507023053 | 27 | 0 | 1.6 | 11.3 | 0.00 | 0.00 | 0.00 | 100 | 1017.8 |
| 20260507021553 | 27 | 64 | 1.6 | 8.0 | 0.00 | 0.00 | 0.00 | 100 | 1017.8 |
| 20260507020107 | 27 | 155 | 1.6 | 9.7 | 0.00 | 0.00 | 0.00 | 100 | 1017.8 |
| 20260507014601 | 26 | 135 | 1.6 | 4.8 | 0.00 | 0.00 | 0.00 | 100 | 1017.7 |
| 20260507013055 | 27 | 82 | 1.6 | 9.7 | 0.00 | 0.00 | 0.00 | 100 | 1017.7 |
| 20260507011551 | 27 | 93 | 1.6 | 6.4 | 0.00 | 0.00 | 0.00 | 100 | 1017.6 |
| 20260507010059 | 27 | 44 | 0.0 | 9.7 | 0.00 | 0.00 | 0.00 | 100 | 1017.6 |
| 20260507004602 | 27 | 71 | 3.2 | 9.7 | 0.00 | 0.00 | 0.00 | 100 | 1017.5 |
| 20260507003053 | 27 | 146 | 1.6 | 8.0 | 0.00 | 0.00 | 0.00 | 100 | 1017.4 |
| 20260507001551 | 26 | 0 | 0.0 | 6.4 | 0.00 | 0.00 | 0.00 | 100 | 1017.3 |
| 20260507000053 | 27 | 0 | 0.0 | 4.8 | 0.00 | 0.00 | 0.00 | 100 | 1017.1 |
| 20260506234553 | 27 | 0 | 1.6 | 9.7 | 0.00 | 0.00 | 0.00 | 100 | 1017.1 |
| 20260506233103 | 27 | 140 | 0.0 | 8.0 | 0.00 | 0.00 | 0.00 | 100 | 1016.8 |
| 20260506231556 | 27 | 147 | 1.6 | 8.0 | 0.00 | 0.00 | 0.00 | 100 | 1016.6 |
| 20260506230056 | 27 | 117 | 1.6 | 9.7 | 0.00 | 0.00 | 0.00 | 100 | 1016.6 |
| 20260506224553 | 27 | 129 | 3.2 | 8.0 | 0.00 | 0.00 | 0.00 | 100 | 1016.5 |
| 20260506223059 | 27 | 113 | 3.2 | 9.7 | 0.00 | 0.00 | 0.00 | 100 | 1016.4 |
| 20260506221612 | 27 | 124 | 1.6 | 8.0 | 0.00 | 0.00 | 0.00 | 100 | 1016.2 |
| 20260506220053 | 27 | 73 | 4.8 | 12.9 | 0.00 | 0.00 | 0.00 | 100 | 1015.9 |
| 20260506214556 | 27 | 132 | 3.2 | 11.3 | 0.00 | 0.00 | 0.00 | 100 | 1015.7 |
| 20260506213112 | 27 | 93 | 3.2 | 9.7 | 0.00 | 0.00 | 0.00 | 100 | 1015.6 |
| 20260506211555 | 27 | 137 | 3.2 | 11.3 | 0.00 | 0.00 | 0.00 | 100 | 1015.7 |
| 20260506210052 | 27 | 0 | 3.2 | 8.0 | 0.00 | 0.00 | 0.00 | 100 | 1015.6 |
| 20260506204600 | 28 | 128 | 4.8 | 9.7 | 0.00 | 0.00 | 0.00 | 100 | 1015.6 |
| 20260506203056 | 28 | 134 | 4.8 | 11.3 | 0.00 | 0.00 | 0.00 | 100 | 1015.5 |
| 20260506201550 | 28 | 94 | 4.8 | 12.9 | 0.00 | 0.00 | 0.00 | 100 | 1015.4 |
| 20260506200052 | 28 | 219 | 4.8 | 11.3 | 0.00 | 0.00 | 0.00 | 100 | 1015.3 |
| 20260506194550 | 28 | 235 | 4.8 | 14.5 | 0.00 | 0.00 | 0.00 | 100 | 1015.3 |
| 20260506193053 | 28 | 31 | 6.4 | 16.1 | 0.00 | 0.00 | 0.00 | 100 | 1015.4 |
| 20260506191549 | 29 | 120 | 3.2 | 14.5 | 0.00 | 0.00 | 0.00 | 100 | 1015.6 |
| 20260506190053 | 28 | 256 | 6.4 | 14.5 | 0.00 | 0.00 | 0.00 | 100 | 1015.6 |
| 20260506184553 | 29 | 82 | 4.8 | 16.1 | 0.00 | 0.00 | 0.00 | 100 | 1015.7 |
| 20260506183104 | 29 | 149 | 4.8 | 17.7 | 0.00 | 0.00 | 0.00 | 100 | 1015.8 |
| 20260506181621 | 29 | 94 | 4.8 | 16.1 | 0.00 | 0.00 | 0.00 | 100 | 1015.9 |
| 20260506180054 | 29 | 159 | 6.4 | 17.7 | 0.00 | 0.00 | 0.00 | 100 | 1016.0 |
| 20260506174555 | 28 | 162 | 6.4 | 16.1 | 0.00 | 0.00 | 0.00 | 100 | 1016.2 |
| 20260506173058 | 28 | 123 | 6.4 | 14.5 | 0.00 | 0.00 | 0.00 | 100 | 1016.4 |
| 20260506171600 | 27 | 102 | 4.8 | 12.9 | 0.00 | 0.00 | 0.00 | 100 | 1016.6 |
| 20260506170057 | 27 | 160 | 4.8 | 14.5 | 0.00 | 0.00 | 0.00 | 100 | 1016.8 |
| 20260506164552 | 28 | 60 | 3.2 | 19.3 | 0.00 | 0.00 | 0.00 | 100 | 1017.2 |
| 20260506163103 | 28 | 182 | 4.8 | 16.1 | 0.00 | 0.00 | 0.00 | 100 | 1017.2 |
| 20260506161557 | 29 | 63 | 6.4 | 17.7 | 0.00 | 0.00 | 0.00 | 100 | 1017.5 |
| 20260506160054 | 29 | 147 | 6.4 | 22.5 | 0.00 | 0.00 | 0.00 | 100 | 1017.6 |
| 20260506154601 | 30 | 68 | 4.8 | 16.1 | 0.00 | 0.00 | 0.00 | 100 | 1017.8 |
| 20260506153110 | 29 | 97 | 4.8 | 16.1 | 0.00 | 0.00 | 0.00 | 100 | 1017.9 |
| 20260506151551 | 30 | 150 | 6.4 | 16.1 | 0.00 | 0.00 | 0.00 | 100 | 1017.9 |
| 20260506150059 | 30 | 139 | 6.4 | 16.1 | 0.00 | 0.00 | 0.00 | 100 | 1018.0 |
| 20260506144555 | 30 | 191 | 6.4 | 17.7 | 0.00 | 0.00 | 0.00 | 100 | 1018.2 |
| 20260506143050 | 30 | 203 | 8.0 | 17.7 | 0.00 | 0.00 | 0.00 | 100 | 1018.2 |
| 20260506141549 | 30 | 214 | 6.4 | 19.3 | 0.00 | 0.00 | 0.00 | 100 | 1018.2 |
| 20260506140049 | 30 | 134 | 6.4 | 17.7 | 0.00 | 0.00 | 0.00 | 100 | 1018.1 |
| 20260506134550 | 30 | 64 | 6.4 | 14.5 | 0.00 | 0.00 | 0.00 | 100 | 1018.1 |
| 20260506133049 | 30 | 165 | 6.4 | 16.1 | 0.00 | 0.00 | 0.00 | 100 | 1018.0 |
| 20260506131553 | 30 | 101 | 4.8 | 17.7 | 0.00 | 0.00 | 0.00 | 100 | 1018.1 |
| 20260506130056 | 29 | 111 | 8.0 | 16.1 | 0.00 | 0.00 | 0.00 | 100 | 1018.1 |
| 20260506124551 | 30 | 155 | 6.4 | 20.9 | 0.00 | 0.00 | 0.00 | 100 | 1018.0 |
| 20260506123051 | 29 | 59 | 6.4 | 20.9 | 0.00 | 0.00 | 0.00 | 100 | 1018.1 |
| 20260506121613 | 29 | 55 | 6.4 | 16.1 | 0.00 | 0.00 | 0.00 | 100 | 1018.0 |
| 20260506120151 | 29 | 56 | 6.4 | 19.3 | 0.00 | 0.00 | 0.00 | 100 | 1018.0 |
| 20260506114550 | 28 | 101 | 4.8 | 16.1 | 0.00 | 0.00 | 0.00 | 100 | 1017.9 |
| 20260506113050 | 28 | 110 | 4.8 | 14.5 | 0.00 | 0.00 | 0.00 | 100 | 1017.8 |
| 20260506111551 | 28 | 124 | 6.4 | 17.7 | 0.00 | 0.00 | 0.00 | 100 | 1017.7 |
| 20260506110050 | 28 | 41 | 6.4 | 24.1 | 0.00 | 0.00 | 0.00 | 100 | 1017.5 |
| 20260506104555 | 27 | 306 | 8.0 | 19.3 | 0.00 | 0.00 | 0.00 | 100 | 1017.3 |
| 20260506103054 | 27 | 146 | 8.0 | 20.9 | 0.00 | 0.00 | 0.00 | 100 | 1017.1 |
| 20260506101546 | 26 | 61 | 6.4 | 16.1 | 0.00 | 0.00 | 0.00 | 100 | 1016.8 |
| 20260506100048 | 27 | 108 | 6.4 | 14.5 | 0.00 | 0.00 | 0.00 | 100 | 1016.6 |
| 20260506094550 | 27 | 146 | 6.4 | 14.5 | 0.00 | 0.00 | 0.00 | 100 | 1016.5 |
| 20260506093050 | 27 | 27 | 4.8 | 16.1 | 0.00 | 0.00 | 0.00 | 100 | 1016.4 |
| 20260506091554 | 26 | 126 | 4.8 | 16.1 | 0.00 | 0.00 | 0.00 | 100 | 1016.3 |
| 20260506090057 | 26 | 108 | 1.6 | 12.9 | 0.00 | 0.00 | 0.00 | 100 | 1016.3 |
| 20260506084551 | 26 | 116 | 6.4 | 14.5 | 0.00 | 0.00 | 0.00 | 100 | 1016.3 |
| 20260506083052 | 26 | 115 | 3.2 | 9.7 | 0.00 | 0.00 | 0.00 | 100 | 1016.1 |
| 20260506081554 | 26 | 0 | 3.2 | 8.0 | 0.00 | 0.00 | 0.00 | 100 | 1016.1 |
| 20260506073050 | 26 | 117 | 1.6 | 11.3 | 0.00 | 0.00 | 0.00 | 100 | 1016.0 |
| 20260506071601 | 26 | 100 | 3.2 | 9.7 | 0.00 | 0.00 | 0.00 | 100 | 1015.9 |
| 20260506061554 | 26 | 131 | 1.6 | 9.7 | 0.00 | 0.00 | 0.00 | 100 | 1016.3 |